Location: Maddington
(51.2000°N, 1.9167°W)
Time: 12:20:10
(UTC+00:00)

ATLAS CENTAUR R/B - Pass Details

Date: 18 September 2020
Orbit: 479 x 667 km, 64.7° (Epoch: 12 October)

Event Time Altitude Azimuth Distance (km) Brightness Sun altitude
Rises 19:26:03 0° 267° (W) 2,647 6.3 -11.9°
Reaches altitude 10° 19:28:45 10° 286° (WNW) 1,730 5.4 -12.3°
Maximum altitude 19:31:34 19° 333° (NNW) 1,242 3.7 -12.7°
Drops below altitude 10° 19:34:19 10° 20° (NNE) 1,686 3.8 -13.1°
Sets 19:36:55 0° 39° (NE) 2,555 4.5 -13.5°
